Regional Weather Roundup
Issued by NWS Albany, NY

Current Version | Previous Version | Graphics & Text | Print | Product List | Glossary Off
Versions: 1 2 3 4 5 6 7 8 9 10 11 12 13 14 15 16 17 18 19 20 21 22 23 24 25 26 27 28 29 30 31 32 33 34 35 36 37 38 39 40 41 42 43 44 45 46 47 48 49 50

000
ASUS41 KALY 212210
RWRALY

NEW YORK STATE HOURLY WEATHER ROUNDUP
NATIONAL WEATHER SERVICE ALBANY NY
600 PM EDT THU AUG 21 2014

NOTE: "FAIR" INDICATES FEW OR NO CLOUDS BELOW 12,000 FEET WITH NO
SIGNIFICANT WEATHER AND/OR NO OBSTRUCTIONS TO VISIBILITY.

NYZ032-033-038>043-046>054-057>066-NYZ062>081-212300-
EAST


CITY           SKY/WX    TMP DP  RH WIND       PRES   REMARKS
ALBANY         LGT RAIN  75  64  68 VRB6      29.99S
GLENS FALLS    CLOUDY    69  65  86 NE5       30.01S
POUGHKEEPSIE   PTSUNNY   77  64  64 S6        29.99S
MONTGOMERY     PTSUNNY   77  63  61 S7        30.00R
WHITE PLAINS   SUNNY     74  56  53 SE8       30.02F
ISLIP          PTSUNNY   74  64  71 SE13      30.02F
NEW YORK CITY  PTSUNNY   78  54  43 SE14      30.01F
CENTRAL PARK   MOSUNNY   76  55  48 S8G16     30.04F
$$

NYZ005>009-017-018-044>046-055-056-212300-
CENTRAL


CITY           SKY/WX    TMP DP  RH WIND       PRES   REMARKS
FULTON         LGT RAIN  77  70  79 VRB3      29.93R
SYRACUSE       MOSUNNY   77  68  73 E5        29.93S
ROME           CLOUDY    70  67  90 CALM      29.96F
ELMIRA         MOSUNNY   79  69  71 S5        29.94F
BINGHAMTON     PTSUNNY   66  63  90 NE5       29.99S
MONTICELLO     CLOUDY    70  66  88 E6        30.03S
$$

NYZ026>034-041>043-212300-
NORTH


CITY           SKY/WX    TMP DP  RH WIND       PRES   REMARKS
WATERTOWN      MOSUNNY   77  64  64 W6        29.95R
FORT DRUM      NOT AVBL
MASSENA        RAIN      65  64  97 E5        30.00R
SARANAC LAKE   CLOUDY    69  62  78 CALM      30.02R
PLATTSBURGH    PTSUNNY   69  59  70 SE9       30.03R
$$

NYZ001>004-010>016-019>021-212300-
WEST


CITY           SKY/WX    TMP DP  RH WIND       PRES   REMARKS
NIAGARA FALLS  PTSUNNY   79  65  62 SW9       29.93S
BUFFALO        MOSUNNY   78  62  57 SW14      29.95S
DUNKIRK        SUNNY     76  63  64 W14G20    29.97S
JAMESTOWN      SUNNY     75  64  69 NW8       30.01S
WELLSVILLE     LGT RAIN  73  65  75 NW6       30.03R
ROCHESTER      PTSUNNY   75  68  78 NE7       29.95R
PENN YAN       MOSUNNY   78  68  71 CALM      29.95F
$$

             KEY
       WCI = WIND CHILL INDEX
       VSB = VISIBILITY
       HX  = HEAT INDEX
$$



USA.gov is the U.S. government's official web portal to all federal, state and local government web resources and services.